ROMMA est une association bénévole à but non lucratif. Votre soutien est indispensable : ADHERER à ROMMA ou FAIRE un DON

Briord - (01, Ain)

Bugey (281 m)   Longitude: 05° 29' 13" E   Latitude: 45° 46' 37" N Station partenaire n°15
 

Détail journalier du     <<     >>

Température Precipitation Humidité Pression Vent Dir Rafale Dir. rafale Ensol.
Heure (°C) (mm) (%) (hPa) (km/h) (km/h) (min)
01:00 0.2095101800---0
02:00 0.2095101800---0
03:00 1.309510192---23NO0
04:00 1.31.895101802NE0
05:00 1.2095101800---0
06:00 1.2095101800---0
07:00 1.2095101802O0
08:00 0.8095101808NO0
09:00 0.6095101902ONO0
10:00 0.509510192ONO15NO0
11:00 0.609510194ONO15ONO0
12:00 1.209410191O15OSO0
13:00 0.90931019011OSO0
14:00 1.3092101802NO0
15:00 1.6092101803S0
16:00 1.5092101803SSO0
17:00 1.3092101800---0
18:00 1.1093101800---0
19:00 -0.4093101800---0
20:00 -1.1094101800---0
21:00 -1.4094101800---0
22:00 -1.5094101800---0
23:00 -2.0094101800---0
minuit -2.1094101800---0

Graphique du 18-01-2019

 

Serveur OMMA